Location: Warszawa
(52.2500°N, 21.0000°E)
Time: 06:06:04
(UTC+01:00)

Vanguard 1 - All Passes

Search period start: 30 January 2023 00:00
Search period end: 09 February 2023 00:00
Orbit: 649 x 3831 km, 34.2° (Epoch: 29 January)

Date Brightness Start Highest point End Pass type
(mag) Time Alt. Az. Time Alt. Az. Time Alt. Az.
30 Jan - 04:15:59 10° SSE 04:21:03 15° SE 04:27:38 10° ESE visible
30 Jan - 06:30:49 10° SW 06:40:13 34° SSE 06:55:18 10° ESE visible
30 Jan - 08:49:28 10° WSW 09:01:44 38° S 09:20:19 10° SE daylight
30 Jan - 11:10:52 10° WSW 11:24:16 27° SSW 11:41:13 10° SSE daylight
31 Jan - 04:34:43 10° S 04:40:48 19° SE 04:49:22 10° ESE visible
31 Jan - 06:50:50 10° SW 07:00:25 36° SSE 07:16:00 10° ESE daylight
31 Jan - 09:09:56 10° WSW 09:22:10 36° SSW 09:40:18 10° SE daylight
31 Jan - 11:32:13 10° WSW 11:44:31 23° SW 11:59:35 10° S daylight
01 Feb - 04:54:00 10° SSW 05:00:41 23° SSE 05:10:38 10° ESE visible
01 Feb - 07:10:57 10° SW 07:20:43 36° S 07:36:34 10° ESE daylight
01 Feb - 09:30:32 10° WSW 09:42:35 32° SSW 10:00:01 10° SE daylight
01 Feb - 11:54:14 10° WSW 12:04:42 18° SW 12:17:03 10° S daylight
02 Feb - 05:13:35 10° SSW 05:20:40 26° SSE 05:31:38 10° ESE visible
02 Feb - 07:31:11 10° WSW 07:41:03 36° S 07:56:58 10° ESE daylight
02 Feb - 09:51:18 10° WSW 10:02:58 29° SSW 10:19:20 10° SSE daylight
02 Feb - 12:17:44 10° WSW 12:24:50 13° SW 12:32:43 10° SSW daylight
03 Feb - 03:20:11 10° SSE 03:22:10 11° SE 03:24:22 10° ESE visible
03 Feb - 05:33:24 10° SW 05:40:45 29° SSE 05:52:27 10° ESE visible
03 Feb - 07:51:31 10° WSW 08:01:26 34° S 08:17:10 10° SE daylight
03 Feb - 10:12:20 10° WSW 10:23:20 24° SSW 10:38:11 10° SSE daylight
04 Feb - 03:38:01 10° S 03:41:56 15° SE 03:46:56 10° ESE visible
04 Feb - 05:53:22 10° SW 06:00:56 30° SSE 06:13:08 10° ESE visible
04 Feb - 08:11:59 10° WSW 08:21:50 31° S 08:37:07 10° SE daylight
04 Feb - 10:33:50 10° WSW 10:43:40 20° SSW 10:56:20 10° S daylight
05 Feb - 03:57:03 10° S 04:01:50 18° SSE 04:08:22 10° ESE visible
05 Feb - 06:13:29 10° SW 06:21:11 31° S 06:33:39 10° ESE visible
05 Feb - 08:32:36 10° WSW 08:42:16 28° SSW 08:56:45 10° SSE daylight
05 Feb - 10:56:10 10° WSW 11:03:58 15° SW 11:13:21 10° S daylight
06 Feb - 04:16:33 10° SSW 04:21:49 21° SSE 04:29:24 10° ESE visible
06 Feb - 06:33:43 10° SW 06:41:30 30° S 06:54:00 10° SE visible
06 Feb - 08:53:26 10° WSW 09:02:40 24° SSW 09:15:59 10° SSE daylight
06 Feb - 11:22:02 10° SW 11:24:14 10° SW 11:26:31 10° SSW daylight
07 Feb - 04:36:19 10° SSW 04:41:54 23° SSE 04:50:12 10° ESE visible
07 Feb - 06:54:04 10° WSW 07:01:51 28° S 07:14:08 10° SE daylight
07 Feb - 09:14:36 10° WSW 09:23:04 20° SSW 09:34:38 10° SSE daylight
08 Feb - 04:56:16 10° SW 05:02:03 24° SSE 05:10:49 10° ESE visible
08 Feb - 07:14:34 10° WSW 07:22:14 26° S 07:34:00 10° SE daylight
08 Feb - 09:36:24 10° WSW 09:43:27 16° SSW 09:52:25 10° S daylight
